Retour au catalogue

STARLINK-36989

ActifCommunicationsVLEO
NORAD 68277·PAYLOAD·🇺🇸 United States

Lancé Mar 19, 2026 depuis Vandenberg Space Force Base

Loading…

Prochains Passages (prochaines 24 heures)

TLE

FraisSource: CelesTrak SupGP

Époque: Sep 14, 2026, 23:33 UTC

1 68277C 26055R   26257.98173611 -.00079659  00000+0 -23533-2 0  2578
2 68277  53.1581 155.6091 0001336  87.0446 300.1282 15.34434214    12

Suivez STARLINK-36989 en temps réel avec AllMySat

Download on the App Store